GW3763 Weather Reports


time (UTC)temp
F
wind
direction
speed
knots
gust
knots
rain 1hr
in
rain 24hr
in
rain mn
in
humidity
%
barometer
mb
20260507060835 0 228 1.7 3.5 0.00 0.00 0.00 1007.8
20260507060331 0 232 4.3 6.1 0.00 0.00 0.00 1007.9
20260507055828 0 243 4.3 7.8 0.00 0.00 0.00 1007.8
20260507055323 0 222 2.6 2.6 0.00 0.00 0.00 1008.1
20260507054820 0 228 2.6 3.5 0.00 0.00 0.00 1008.0
20260507054316 0 217 0.0 1.7 0.00 0.00 0.00 1008.0
20260507053814 0 231 2.6 3.5 0.00 0.00 0.00 1008.0
20260507053311 0 219 1.7 3.5 0.00 0.00 0.00 1008.1
20260507052810 0 222 1.7 3.5 0.00 0.00 0.00 1007.9
20260507052307 0 219 2.6 5.2 0.00 0.00 0.00 1008.0
20260507051804 0 224 1.7 5.2 0.00 0.00 0.00 1007.9
20260507051301 0 238 2.6 3.5 0.00 0.00 0.00 1007.9
20260507050758 0 229 0.9 2.6 0.00 0.00 0.00 1008.1
20260507050254 0 216 0.9 1.7 0.00 0.00 0.00 1008.0
20260507045751 0 218 0.9 3.5 0.00 0.00 0.00 1008.0
20260507045247 0 217 3.5 3.5 0.00 0.00 0.00 1008.1
20260507044745 0 222 2.6 3.5 0.00 0.00 0.00 1008.4
20260507044241 0 218 2.6 5.2 0.00 0.00 0.00 1008.3
20260507043737 0 219 0.9 2.6 0.00 0.00 0.00 1008.0
20260507043234 0 231 1.7 3.5 0.00 0.00 0.00 1008.3
20260507042731 0 220 2.6 3.5 0.00 0.00 0.00 1008.2
20260507042225 0 220 0.9 1.7 0.00 0.00 0.00 1008.4
20260507041723 0 220 0.0 0.0 0.00 0.00 0.00 1008.2
20260507041220 0 221 0.9 1.7 0.00 0.00 0.00 1008.2
20260507040717 0 220 0.0 0.9 0.00 0.00 0.00 1008.2
20260507040213 0 221 1.7 1.7 0.00 0.00 0.00 1008.1
20260507035709 0 220 0.9 1.7 0.00 0.67 0.67 1008.1
20260507035205 0 220 0.0 1.7 0.00 0.67 0.67 1008.1
20260507034702 0 220 0.0 0.0 0.00 0.67 0.67 1008.1
20260507034159 0 220 0.0 0.0 0.00 0.67 0.67 1008.0
20260507033658 0 220 0.0 1.7 0.00 0.67 0.67 1008.0
20260507033154 0 220 1.7 1.7 0.00 0.67 0.67 1008.2
20260507032652 0 220 0.0 0.0 0.00 0.67 0.67 1008.1
20260507032147 0 220 0.9 1.7 0.00 0.67 0.67 1007.8
20260507031645 0 220 1.7 1.7 0.00 0.67 0.67 1008.1
20260507031141 0 220 0.9 1.7 0.00 0.67 0.67 1008.1
20260507030638 0 220 1.7 2.6 0.00 0.67 0.67 1008.1
20260507030136 0 220 0.9 1.7 0.00 0.67 0.67 1008.2
20260507025633 0 220 0.0 0.0 0.00 0.67 0.67 1008.1
20260507025129 0 220 0.0 0.9 0.00 0.67 0.67 1008.2
20260507024628 0 220 0.0 0.9 0.00 0.67 0.67 1008.5
20260507024124 0 220 0.9 0.9 0.00 0.67 0.67 1008.5
20260507023620 0 220 0.0 0.0 0.00 0.67 0.67 1008.3
20260507023118 0 220 0.9 1.7 0.00 0.67 0.67 1008.3
20260507022614 0 220 0.0 0.0 0.00 0.67 0.67 1008.3
20260507022110 0 220 0.0 0.0 0.00 0.67 0.67 1008.1
20260507021606 0 220 0.9 2.6 0.00 0.67 0.67 1008.9
20260507021102 0 220 1.7 1.7 0.00 0.67 0.67 1008.7
20260507020601 0 220 0.9 1.7 0.00 0.67 0.67 1008.6
20260507020056 0 220 0.0 1.7 0.00 0.67 0.67 1008.5
20260507015555 0 220 0.9 2.6 0.00 0.67 0.67 1008.7
20260507015052 0 219 1.7 1.7 0.00 0.67 0.67 1008.8
20260507014549 0 219 0.9 1.7 0.00 0.67 0.67 1008.8
20260507014044 0 219 0.0 0.0 0.00 0.67 0.67 1008.7
20260507013541 0 219 0.0 1.7 0.00 0.67 0.67 1008.7
20260507013039 0 218 0.0 0.0 0.00 0.67 0.67 1008.6
20260507012536 0 218 0.9 1.7 0.00 0.67 0.67 1008.8
20260507012032 0 221 2.6 3.5 0.00 0.67 0.67 1008.5
20260507011530 0 223 1.7 1.7 0.00 0.67 0.67 1008.3
20260507011025 0 218 0.0 1.7 0.00 0.67 0.67 1008.6
20260507010520 0 216 0.0 1.7 0.00 0.67 0.67 1008.5
20260507010017 0 221 1.7 2.6 0.00 0.67 0.67 1008.5
20260507005514 0 221 1.7 5.2 0.00 0.67 0.67 1008.7
20260507005011 0 221 1.7 5.2 0.00 0.67 0.67 1008.5
20260507004508 0 227 1.7 3.5 0.00 0.67 0.67 1008.2
20260507004005 0 222 1.7 2.6 0.00 0.67 0.67 1008.2
20260507003500 0 254 3.5 3.5 0.00 0.67 0.67 1008.1
20260507002955 0 230 1.7 3.5 0.00 0.67 0.67 1008.0
20260507002452 0 219 1.7 3.5 0.00 0.67 0.67 1007.9
20260507001944 0 228 1.7 2.6 0.00 0.67 0.67 1007.9
20260507001440 0 304 4.3 5.2 0.00 0.67 0.67 1007.8
20260507000938 0 227 1.7 1.7 0.00 0.67 0.67 1007.7
20260507000435 0 220 1.7 3.5 0.00 0.67 0.67 1007.6
20260506235929 0 231 2.6 2.6 0.00 0.67 0.67 1007.6
20260506235427 0 239 3.5 3.5 0.00 0.67 0.67 1007.8
20260506234921 0 217 0.9 2.6 0.00 0.67 0.67 1007.6
20260506234420 0 232 2.6 3.5 0.00 0.67 0.67 1007.5
20260506233917 0 216 1.7 2.6 0.00 0.67 0.67 1007.6
20260506233414 0 224 1.7 6.1 0.00 0.67 0.67 1007.3
20260506232910 0 231 1.7 6.1 0.00 0.67 0.67 1007.2
20260506232406 0 254 3.5 7.8 0.00 0.67 0.67 1007.5
20260506231902 0 264 3.5 5.2 0.00 0.67 0.67 1007.4
20260506231400 0 333 7.8 9.6 0.00 0.67 0.67 1007.4
20260506230857 0 299 4.3 8.7 0.00 0.67 0.67 1007.4
20260506230353 0 284 5.2 9.6 0.00 0.67 0.67 1007.4
20260506225844 0 322 6.1 7.8 0.00 0.67 0.67 1007.5
20260506225342 0 235 4.3 6.1 0.00 0.67 0.67 1007.4
20260506224839 0 259 6.1 7.8 0.00 0.67 0.67 1007.3
20260506224336 0 322 6.1 7.8 0.00 0.67 0.67 1007.2
20260506223832 0 314 7.0 8.7 0.00 0.67 0.67 1007.2
20260506223327 0 291 4.3 7.8 0.00 0.67 0.67 1006.8
20260506222825 0 250 7.0 11.3 0.00 0.67 0.67 1006.7
20260506222320 0 253 3.5 7.0 0.00 0.67 0.67 1006.7
20260506221818 0 353 7.0 8.7 0.00 0.67 0.67 1006.5
20260506221316 0 277 4.3 6.1 0.00 0.67 0.67 1006.4
20260506220813 0 329 7.8 9.6 0.00 0.67 0.67 1006.4
20260506220313 0 253 5.2 7.8 0.00 0.67 0.67 1006.5
20260506215810 0 228 6.1 7.8 0.00 0.67 0.67 1006.3
20260506215306 0 296 5.2 7.0 0.00 0.67 0.67 1006.2
20260506214802 0 281 5.2 9.6 0.00 0.67 0.67 1006.2
20260506214259 0 299 6.1 7.8 0.00 0.67 0.67 1006.4
20260506213758 0 242 4.3 7.8 0.00 0.67 0.67 1006.4
20260506213254 0 232 3.5 9.6 0.00 0.67 0.67 1006.1
20260506212752 0 249 5.2 12.2 0.00 0.67 0.67 1006.0
20260506212247 0 237 2.6 7.0 0.00 0.67 0.67 1006.0
20260506211742 0 259 5.2 9.6 0.00 0.67 0.67 1005.9
20260506211239 0 314 6.1 11.3 0.00 0.67 0.67 1005.7
20260506210736 0 222 3.5 7.8 0.00 0.67 0.67 1005.5
20260506210233 0 263 5.2 11.3 0.00 0.67 0.67 1005.4
20260506205730 0 257 3.5 9.6 0.00 0.67 0.67 1005.5
20260506205225 0 239 5.2 7.8 0.00 0.67 0.67 1005.2
20260506204718 0 262 3.5 9.6 0.00 0.67 0.67 1005.1
20260506204215 0 232 2.6 5.2 0.00 0.67 0.67 1005.1
20260506203713 0 297 7.8 9.6 0.00 0.67 0.67 1004.9
20260506203209 0 256 3.5 5.2 0.00 0.67 0.67 1004.8
20260506202702 0 227 1.7 3.5 0.00 0.67 0.67 1004.6
20260506202157 0 238 2.6 7.8 0.00 0.67 0.67 1004.6
20260506201655 0 255 5.2 7.8 0.00 0.67 0.67 1004.2
20260506201151 0 235 4.3 9.6 0.00 0.67 0.67 1004.7
20260506200648 0 311 6.1 7.0 0.00 0.67 0.67 1004.7
20260506200144 0 240 3.5 6.1 0.00 0.67 0.67 1004.5
20260506195641 0 244 2.6 5.2 0.05 0.67 0.67 1004.6
20260506195137 0 289 4.3 9.6 0.05 0.67 0.67 1004.6
20260506194634 0 249 5.2 7.0 0.00 0.66 0.66 1004.6
20260506194130 0 207 3.5 9.6 0.00 0.66 0.66 1004.7
20260506193628 0 233 3.5 7.8 0.00 0.66 0.66 1004.5
20260506193125 0 251 3.5 9.6 0.00 0.66 0.66 1004.3
20260506192622 0 237 4.3 7.0 0.00 0.66 0.66 1004.2
20260506192118 0 264 5.2 8.7 0.07 0.66 0.66 1004.1
20260506191615 0 229 3.5 6.1 0.00 0.65 0.65 1003.7
20260506191111 0 218 0.9 2.6 0.00 0.65 0.65 1003.7
20260506190609 0 218 1.7 2.6 0.00 0.65 0.65 1003.5
20260506190106 0 215 0.0 2.6 0.00 0.65 0.65 1003.7
20260506185603 0 215 0.0 2.6 0.00 0.65 0.65 1003.7
20260506185059 0 209 0.9 2.6 0.00 0.65 0.65 1003.6
20260506184557 0 216 0.9 3.5 0.00 0.65 0.65 1003.6
20260506184054 0 212 0.0 1.7 0.00 0.65 0.65 1003.7
20260506183549 0 215 0.9 3.5 0.00 0.65 0.65 1003.9
20260506183046 0 216 0.0 3.5 0.00 0.65 0.65 1003.6
20260506182543 0 211 0.9 3.5 0.00 0.65 0.65 1003.7
20260506182040 0 246 2.6 5.2 0.00 0.65 0.65 1003.8
20260506181538 0 211 0.0 0.9 0.00 0.65 0.65 1003.8
20260506181035 0 216 0.0 3.5 0.00 0.65 0.65 1003.8
20260506180531 0 205 1.7 2.6 0.00 0.65 0.65 1003.8
20260506180028 0 215 1.7 2.6 0.00 0.65 0.65 1003.9
20260506175525 0 222 2.6 2.6 0.00 0.65 0.65 1003.7
20260506175021 0 217 1.7 5.2 0.00 0.65 0.65 1003.7
20260506174520 0 224 1.7 5.2 0.00 0.65 0.65 1003.7
20260506174016 0 223 2.6 5.2 0.00 0.65 0.65 1003.6
20260506173514 0 210 0.0 7.8 0.00 0.65 0.65 1003.7
20260506173010 0 219 0.9 5.2 0.00 0.65 0.65 1003.6
20260506172508 0 205 1.7 5.2 0.00 0.65 0.65 1003.7
20260506172003 0 219 1.7 7.0 0.00 0.65 0.65 1003.8
20260506171501 0 223 2.6 3.5 0.00 0.65 0.65 1003.8
20260506170959 0 221 0.9 3.5 0.05 0.65 0.65 1004.0
20260506170455 0 216 1.7 3.5 0.05 0.65 0.65 1003.9
20260506165953 0 220 0.9 1.7 0.07 0.64 0.64 1004.2
20260506165452 0 221 2.6 3.5 0.12 0.64 0.64 1004.0
20260506164948 0 207 0.9 2.6 0.05 0.63 0.63 1004.0
20260506164445 0 220 0.9 7.0 0.07 0.62 0.62 1004.0
20260506163943 0 213 0.0 1.7 0.07 0.61 0.61 1004.1
20260506163438 0 206 0.9 1.7 0.12 0.61 0.61 1004.2
20260506162932 0 215 0.9 3.5 0.05 0.60 0.60 1004.3
20260506162431 0 230 1.7 2.6 0.00 0.59 0.59 1004.1
20260506161927 0 225 1.7 2.6 0.00 0.59 0.59 1004.1
20260506161425 0 214 0.9 2.6 0.00 0.59 0.59 1004.1
20260506160917 0 213 0.0 3.5 0.00 0.59 0.59 1004.1
20260506160414 0 215 0.9 3.5 0.07 0.59 0.59 1004.0
20260506155912 0 212 1.7 2.6 0.07 0.59 0.59 1004.3
20260506155408 0 214 2.6 3.5 0.05 0.58 0.58 1004.3
20260506153525 0 213 0.0 0.9 0.17 0.54 0.54 1004.1
20260506153022 0 217 0.0 3.5 0.17 0.52 0.52 1004.3
20260506152519 0 237 2.6 2.6 0.19 0.51 0.51 1004.2
20260506152017 0 213 1.7 2.6 0.14 0.49 0.49 1004.3
20260506151514 0 195 3.5 3.5 0.19 0.48 0.48 1004.3
20260506151012 0 224 0.9 2.6 0.12 0.46 0.46 1004.6
20260506150508 0 185 5.2 6.1 0.05 0.45 0.45 1004.2
20260506150005 0 194 3.5 5.2 0.07 0.44 0.44 1004.2
20260506145501 0 215 0.9 3.5 0.05 0.43 0.43 1004.2
20260506144959 0 217 0.9 3.5 0.12 0.43 0.43 1004.2
20260506144455 0 196 3.5 5.2 0.12 0.42 0.42 1004.1
20260506143953 0 173 3.5 3.5 0.12 0.41 0.41 1004.5
20260506143450 0 211 0.0 2.6 0.05 0.39 0.39 1004.2
20260506142949 0 212 0.0 3.5 0.05 0.39 0.39 1004.3
20260506142446 0 217 1.7 3.5 0.07 0.38 0.38 1004.3
20260506141944 0 214 1.7 5.2 0.07 0.38 0.38 1004.5
20260506141442 0 219 0.0 1.7 0.00 0.37 0.37 1004.5
20260506140940 0 215 0.9 2.6 0.00 0.37 0.37 1004.1
20260506140436 0 212 0.9 1.7 0.00 0.37 0.37 1004.0
20260506135933 0 222 0.9 2.6 0.05 0.37 0.37 1004.2
20260506135431 0 205 1.7 1.7 0.00 0.36 0.36 1004.0
20260506134927 0 197 0.9 1.7 0.07 0.36 0.36 1004.3
20260506134423 0 215 0.0 0.9 0.14 0.36 0.36 1004.3
20260506133920 0 211 0.0 1.7 0.19 0.35 0.35 1004.6
20260506133417 0 205 0.9 0.9 0.12 0.34 0.34 1004.9
20260506132913 0 216 0.9 2.6 0.05 0.32 0.32 1005.0
20260506132411 0 203 1.7 1.7 0.07 0.31 0.31 1005.0
20260506131908 0 215 0.9 2.6 0.05 0.30 0.30 1005.1
20260506131404 0 204 0.0 1.7 0.17 0.30 0.30 1005.3
20260506130902 0 212 0.0 0.0 0.17 0.28 0.28 1005.5
20260506130358 0 212 0.0 0.0 0.19 0.27 0.27 1005.4
20260506125856 0 209 0.9 0.9 0.14 0.25 0.25 1005.4
20260506125354 0 205 1.7 1.7 0.19 0.24 0.24 1005.5
20260506124852 0 202 0.0 0.9 0.19 0.22 0.22 1005.3
20260506124349 0 210 0.0 0.0 0.12 0.20 0.20 1005.3
20260506123847 0 210 0.0 0.0 0.12 0.19 0.19 1005.2
20260506123345 0 210 0.0 0.0 0.12 0.18 0.18 1004.9
20260506122842 0 210 0.0 0.0 0.12 0.17 0.17 1005.0
20260506122338 0 210 0.0 0.0 0.12 0.16 0.16 1005.1
20260506121837 0 210 0.0 0.9 0.12 0.15 0.15 1004.9
20260506121333 0 210 0.0 0.0 0.07 0.14 0.14 1005.0
20260506120831 0 210 0.0 0.0 0.05 0.13 0.13 1005.1
20260506120329 0 210 0.0 0.0 0.07 0.12 0.12 1005.0
20260506115826 0 212 0.9 1.7 0.07 0.12 0.12 1005.2
20260506115324 0 205 0.0 0.0 0.00 0.11 0.11 1005.1
20260506114821 0 205 0.0 0.0 0.07 0.11 0.11 1005.1
20260506114319 0 205 0.0 0.9 0.12 0.11 0.11 1005.1
20260506113817 0 205 0.0 1.7 0.05 0.10 0.10 1005.2
20260506113315 0 205 0.0 0.0 0.00 0.09 0.09 1005.1
20260506112811 0 205 0.0 0.9 0.07 0.09 0.09 1005.1
20260506112309 0 204 1.7 1.7 0.07 0.09 0.09 1005.1
20260506111806 0 204 0.0 1.7 0.00 0.08 0.08 1005.2
20260506111304 0 210 1.7 1.7 0.00 0.08 0.08 1004.9
20260506110801 0 209 0.9 2.6 0.00 0.08 0.08 1005.0
20260506110258 0 205 0.0 0.9 0.05 0.08 0.08 1005.1
20260506105754 0 188 0.9 1.7 0.00 0.07 0.07 1005.2
20260506105251 0 205 0.0 0.9 0.07 0.07 0.07 1005.3
20260506104749 0 205 0.0 0.9 0.12 0.07 0.07 1005.4
20260506104246 0 207 0.0 0.0 0.12 0.06 0.06 1005.3
20260506103744 0 207 0.0 0.0 0.12 0.05 0.05 1005.2
20260506103241 0 211 0.0 0.9 0.05 0.04 0.04 1005.1
20260506102738 0 212 0.0 0.0 0.00 0.03 0.03 1005.1
20260506102236 0 207 0.0 1.7 0.07 0.03 0.03 1005.0
20260506101733 0 210 0.9 0.9 0.07 0.03 0.03 1005.0
20260506101229 0 207 0.0 0.9 0.00 0.02 0.02 1005.0
20260506100728 0 206 0.9 0.9 0.00 0.02 0.02 1004.8
20260506100225 0 208 0.9 1.7 0.05 0.02 0.02 1005.0
20260506095724 0 201 0.9 1.7 0.00 0.01 0.01 1005.0
20260506095220 0 201 0.9 0.9 0.07 0.01 0.01 1004.8
20260506094717 0 205 0.9 0.9 0.07 0.01 0.01 1004.8
20260506094215 0 206 1.7 1.7 0.00 0.00 0.00 1004.7
20260506093714 0 207 0.9 1.7 0.00 0.00 0.00 1005.0
20260506093210 0 201 1.7 2.6 0.00 0.00 0.00 1004.6
20260506092708 0 207 1.7 1.7 0.00 0.00 0.00 1004.6
20260506092205 0 207 1.7 1.7 0.00 0.00 0.00 1004.7
20260506091703 0 206 0.9 1.7 0.00 0.00 0.00 1004.6
20260506091200 0 211 1.7 1.7 0.00 0.00 0.00 1004.5
20260506090658 0 207 0.9 0.9 0.00 0.00 0.00 1004.5
20260506090154 0 207 0.0 0.0 0.00 0.00 0.00 1004.7
20260506085651 0 207 0.9 1.7 0.00 0.00 0.00 1004.7
20260506085147 0 207 0.9 1.7 0.00 0.00 0.00 1005.0
20260506084644 0 207 0.9 0.9 0.00 0.00 0.00 1005.0
20260506084141 0 207 1.7 1.7 0.00 0.00 0.00 1005.1
20260506083638 0 207 0.0 1.7 0.00 0.00 0.00 1005.2
20260506083136 0 207 0.9 1.7 0.00 0.00 0.00 1005.2
20260506082632 0 207 0.0 0.0 0.00 0.00 0.00 1005.0
20260506082128 0 207 0.0 0.0 0.00 0.00 0.00 1005.0
20260506081626 0 207 0.0 0.0 0.00 0.00 0.00 1004.6
20260506081124 0 207 0.0 0.0 0.00 0.00 0.00 1004.8
20260506080621 0 207 0.0 0.0 0.00 0.00 0.00 1004.6
20260506080117 0 208 0.0 0.0 0.00 0.00 0.00 1004.8
20260506073101 0 191 1.7 5.2 0.00 0.00 0.00 1004.8
20260506072558 0 197 0.9 3.5 0.00 0.00 0.00 1004.9
20260506072056 0 200 1.7 1.7 0.00 0.00 0.00 1004.9
20260506071553 0 205 0.0 1.7 0.00 0.00 0.00 1004.8
20260506071051 0 196 1.7 2.6 0.00 0.00 0.00 1005.0
20260506070548 0 203 0.9 1.7 0.00 0.00 0.00 1004.8
20260506062022 0 209 0.0 0.9 0.00 0.00 0.00 1005.3
20260506061518 0 211 0.0 0.0 0.00 0.00 0.00 1005.5
20260506061016 0 211 0.0 0.0 0.00 0.00 0.00 1005.5